Location: Babice
(50.3480°N, 22.9363°E)
Time: 12:25:11
(UTC+00:00)

Cosmos 676 Rocket - Pass Details

Date: 14 July 2020
Orbit: 753 x 785 km, 74.0° (Epoch: 07 August)

Event Time Altitude Azimuth Distance (km) Brightness Sun altitude
Exits shadow 01:16:40 12° 212° (SSW) 2,155 5.7 -9.6°
Maximum altitude 01:21:30 70° 296° (WNW) 825 4.1 -9.1°
Drops below altitude 10° 01:26:49 10° 21° (NNE) 2,343 7.9 -8.6°
Sets 01:29:15 0° 24° (NNE) 3,278 9.0 -8.3°
